Today

Time Wind Dr Wind Spd
mph
Wind Gust
mph
Hum In
%
Humid
%
TempI
F
Temp
F
Raw Bar
in
Tot Rain
in
UV Solar
W/sqm
DailyRain
in
HourRain
in
24HrRain
in
RainRate
in
05/30/24 12:01:33 AM 360 0.0 0.0 57 78 69.6 60.2 30.001 13.07 0.0 0 0.00 0.00 0.00 0.00
05/30/24 12:02:25 AM 360 0.0 0.0 57 78 69.6 60.2 30.001 13.07 0.0 0 0.00 0.00 0.00 0.00
05/30/24 12:03:29 AM 360 0.0 0.0 57 78 69.6 60.2 30.001 13.07 0.0 0 0.00 0.00 0.00 0.00
05/30/24 12:04:21 AM 360 0.0 0.0 57 78 69.6 60.2 30.001 13.07 0.0 0 0.00 0.00 0.00 0.00
05/30/24 12:05:34 AM 360 0.0 0.0 58 78 69.5 60.1 30.002 13.07 0.0 0 0.00 0.00 0.00 0.00
05/30/24 12:06:23 AM 360 0.0 0.0 58 78 69.5 60.1 30.002 13.07 0.0 0 0.00 0.00 0.00 0.00
05/30/24 12:07:36 AM 360 0.0 0.0 58 78 69.5 60.1 30.001 13.07 0.0 0 0.00 0.00 0.00 0.00
05/30/24 12:08:28 AM 360 0.0 0.0 58 78 69.5 60.1 30.001 13.07 0.0 0 0.00 0.00 0.00 0.00
05/30/24 12:09:47 AM 360 0.0 0.0 58 78 69.5 60.0 29.997 13.07 0.0 0 0.00 0.00 0.00 0.00
05/30/24 12:10:36 AM 360 0.0 0.0 58 78 69.5 60.0 30.000 13.07 0.0 0 0.00 0.00 0.00 0.00
05/30/24 12:11:27 AM 360 0.0 0.0 58 78 69.5 60.0 30.000 13.07 0.0 0 0.00 0.00 0.00 0.00
05/30/24 12:12:19 AM 360 0.0 0.0 58 78 69.5 59.9 30.000 13.07 0.0 0 0.00 0.00 0.00 0.00
05/30/24 12:13:29 AM 360 0.0 0.0 58 78 69.4 59.9 29.999 13.07 0.0 0 0.00 0.00 0.00 0.00
05/30/24 12:15:52 AM 360 0.0 0.0 58 78 69.4 59.8 29.999 13.07 0.0 0 0.00 0.00 0.00 0.00
05/30/24 12:16:23 AM 360 0.0 0.0 58 78 69.4 59.8 29.999 13.07 0.0 0 0.00 0.00 0.00 0.00
05/30/24 12:17:33 AM 360 0.0 0.0 58 79 69.4 59.8 29.996 13.07 0.0 0 0.00 0.00 0.00 0.00
05/30/24 12:18:25 AM 360 0.0 0.0 58 79 69.4 59.8 29.996 13.07 0.0 0 0.00 0.00 0.00 0.00
05/30/24 12:19:36 AM 360 0.0 0.0 58 79 69.4 59.7 29.995 13.07 0.0 0 0.00 0.00 0.00 0.00
05/30/24 12:20:23 AM 360 0.0 0.0 58 79 69.4 59.7 29.995 13.07 0.0 0 0.00 0.00 0.00 0.00
05/30/24 12:21:36 AM 360 0.0 0.0 58 79 69.4 59.7 29.995 13.07 0.0 0 0.00 0.00 0.00 0.00
05/30/24 12:22:29 AM 360 0.0 0.0 58 79 69.3 59.7 29.996 13.07 0.0 0 0.00 0.00 0.00 0.00
05/30/24 12:23:21 AM 360 0.0 0.0 58 79 69.3 59.6 29.996 13.07 0.0 0 0.00 0.00 0.00 0.00
05/30/24 12:24:35 AM 360 0.0 0.0 58 79 69.2 59.6 29.995 13.07 0.0 0 0.00 0.00 0.00 0.00
05/30/24 12:25:22 AM 360 0.0 0.0 58 79 69.2 59.6 29.995 13.07 0.0 0 0.00 0.00 0.00 0.00
05/30/24 12:26:32 AM 360 0.0 0.0 58 79 69.2 59.6 29.995 13.07 0.0 0 0.00 0.00 0.00 0.00
05/30/24 12:27:25 AM 360 0.0 0.0 58 79 69.2 59.6 29.995 13.07 0.0 0 0.00 0.00 0.00 0.00
05/30/24 12:28:36 AM 360 0.0 0.0 58 79 69.1 59.6 29.993 13.07 0.0 0 0.00 0.00 0.00 0.00
05/30/24 12:29:28 AM 360 0.0 0.0 58 80 69.1 59.6 29.992 13.07 0.0 0 0.00 0.00 0.00 0.00
05/30/24 12:30:42 AM 360 0.0 0.0 58 80 69.1 59.6 29.992 13.07 0.0 0 0.00 0.00 0.00 0.00
05/30/24 12:31:26 AM 360 0.0 0.0 58 80 69.1 59.6 29.993 13.07 0.0 0 0.00 0.00 0.00 0.00
05/30/24 12:32:18 AM 360 0.0 0.0 58 80 69.1 59.6 29.992 13.07 0.0 0 0.00 0.00 0.00 0.00
05/30/24 12:33:32 AM 360 0.0 0.0 58 80 69.1 59.5 29.993 13.07 0.0 0 0.00 0.00 0.00 0.00
05/30/24 12:34:22 AM 360 0.0 0.0 58 80 69.1 59.5 29.993 13.07 0.0 0 0.00 0.00 0.00 0.00
05/30/24 12:35:35 AM 360 0.0 0.0 58 80 69.0 59.5 29.990 13.07 0.0 0 0.00 0.00 0.00 0.00
05/30/24 12:36:22 AM 360 0.0 0.0 58 80 69.0 59.5 29.990 13.07 0.0 0 0.00 0.00 0.00 0.00
05/30/24 12:37:33 AM 360 0.0 0.0 58 80 68.9 59.5 29.989 13.07 0.0 0 0.00 0.00 0.00 0.00
05/30/24 12:38:26 AM 360 0.0 0.0 58 80 68.9 59.4 29.989 13.07 0.0 0 0.00 0.00 0.00 0.00
05/30/24 12:39:15 AM 360 0.0 0.0 58 80 68.9 59.4 29.990 13.07 0.0 0 0.00 0.00 0.00 0.00
05/30/24 12:40:29 AM 360 0.0 0.0 58 79 68.9 59.4 29.989 13.07 0.0 0 0.00 0.00 0.00 0.00
05/30/24 12:41:21 AM 360 0.0 0.0 58 79 68.9 59.4 29.989 13.07 0.0 0 0.00 0.00 0.00 0.00
05/30/24 12:42:26 AM 360 0.0 0.0 58 79 68.8 59.3 29.989 13.07 0.0 0 0.00 0.00 0.00 0.00
05/30/24 12:43:19 AM 360 0.0 0.0 58 79 68.8 59.3 29.989 13.07 0.0 0 0.00 0.00 0.00 0.00
05/30/24 12:44:30 AM 360 0.0 0.0 58 80 68.8 59.3 29.989 13.07 0.0 0 0.00 0.00 0.00 0.00
05/30/24 12:45:22 AM 360 0.0 0.0 59 80 68.8 59.3 29.989 13.07 0.0 0 0.00 0.00 0.00 0.00
05/30/24 12:46:33 AM 360 0.0 0.0 59 80 68.7 59.2 29.987 13.07 0.0 0 0.00 0.00 0.00 0.00
05/30/24 12:47:23 AM 360 0.0 0.0 59 80 68.7 59.2 29.987 13.07 0.0 0 0.00 0.00 0.00 0.00
05/30/24 12:48:33 AM 360 0.0 0.0 59 80 68.7 59.1 29.987 13.07 0.0 0 0.00 0.00 0.00 0.00
05/30/24 12:49:26 AM 360 0.0 0.0 59 80 68.7 59.1 29.983 13.07 0.0 0 0.00 0.00 0.00 0.00
05/30/24 12:50:19 AM 360 0.0 0.0 59 80 68.7 59.1 29.983 13.07 0.0 0 0.00 0.00 0.00 0.00
05/30/24 12:51:29 AM 360 0.0 0.0 59 80 68.7 59.1 29.984 13.07 0.0 0 0.00 0.00 0.00 0.00
05/30/24 12:53:29 AM 360 0.0 0.0 59 80 68.6 59.1 29.984 13.07 0.0 0 0.00 0.00 0.00 0.00
05/30/24 12:54:21 AM 360 0.0 0.0 59 80 68.6 59.0 29.984 13.07 0.0 0 0.00 0.00 0.00 0.00
05/30/24 12:55:32 AM 360 0.0 0.0 59 80 68.6 59.0 29.982 13.07 0.0 0 0.00 0.00 0.00 0.00
05/30/24 12:56:25 AM 360 0.0 0.0 59 80 68.6 59.0 29.982 13.07 0.0 0 0.00 0.00 0.00 0.00
05/30/24 12:57:32 AM 360 0.0 0.0 59 80 68.5 58.9 29.984 13.07 0.0 0 0.00 0.00 0.00 0.00
05/30/24 12:58:25 AM 360 0.0 0.0 59 80 68.5 58.9 29.984 13.07 0.0 0 0.00 0.00 0.00 0.00
05/30/24 12:59:36 AM 360 0.0 0.0 59 80 68.5 58.9 29.985 13.07 0.0 0 0.00 0.00 0.00 0.00
05/30/24 1:00:28 AM 360 0.0 0.0 59 80 68.5 58.8 29.985 13.07 0.0 0 0.00 0.00 0.00 0.00
05/30/24 1:01:18 AM 360 0.0 0.0 59 80 68.4 58.8 29.985 13.07 0.0 0 0.00 0.00 0.00 0.00
05/30/24 1:02:32 AM 360 0.0 0.0 59 80 68.4 58.8 29.984 13.07 0.0 0 0.00 0.00 0.00 0.00
05/30/24 1:03:18 AM 360 0.0 0.0 59 80 68.4 58.8 29.984 13.07 0.0 0 0.00 0.00 0.00 0.00
05/30/24 1:04:32 AM 360 0.0 0.0 59 80 68.4 58.8 29.981 13.07 0.0 0 0.00 0.00 0.00 0.00
05/30/24 1:05:25 AM 360 0.0 0.0 59 80 68.4 58.8 29.981 13.07 0.0 0 0.00 0.00 0.00 0.00
05/30/24 1:06:17 AM 360 0.0 0.0 59 80 68.4 58.7 29.982 13.07 0.0 0 0.00 0.00 0.00 0.00
05/30/24 1:07:28 AM 360 0.0 0.0 59 80 68.3 58.7 29.980 13.07 0.0 0 0.00 0.00 0.00 0.00
05/30/24 1:08:36 AM 360 0.0 0.0 59 80 68.3 58.7 29.981 13.07 0.0 0 0.00 0.00 0.00 0.00
05/30/24 1:09:29 AM 360 0.0 0.0 59 80 68.3 58.7 29.982 13.07 0.0 0 0.00 0.00 0.00 0.00
05/30/24 1:10:21 AM 360 0.0 0.0 59 80 68.3 58.6 29.982 13.07 0.0 0 0.00 0.00 0.00 0.00
05/30/24 1:11:32 AM 360 0.0 0.0 59 80 68.2 58.6 29.981 13.07 0.0 0 0.00 0.00 0.00 0.00
05/30/24 1:12:25 AM 360 0.0 0.0 59 80 68.2 58.6 29.981 13.07 0.0 0 0.00 0.00 0.00 0.00
05/30/24 1:13:33 AM 360 0.0 0.0 59 80 68.1 58.6 29.981 13.07 0.0 0 0.00 0.00 0.00 0.00
05/30/24 1:14:22 AM 360 0.0 0.0 59 80 68.1 58.6 29.981 13.07 0.0 0 0.00 0.00 0.00 0.00
05/30/24 1:15:36 AM 360 0.0 0.0 59 81 68.1 58.6 29.979 13.07 0.0 0 0.00 0.00 0.00 0.00
05/30/24 1:16:29 AM 360 0.0 0.0 59 81 68.1 58.5 29.978 13.07 0.0 0 0.00 0.00 0.00 0.00
05/30/24 1:17:18 AM 360 0.0 0.0 59 81 68.1 58.5 29.978 13.07 0.0 0 0.00 0.00 0.00 0.00
05/30/24 1:18:29 AM 360 0.0 0.0 59 81 68.1 58.5 29.980 13.07 0.0 0 0.00 0.00 0.00 0.00
05/30/24 1:19:18 AM 360 0.0 0.0 59 81 68.1 58.5 29.980 13.07 0.0 0 0.00 0.00 0.00 0.00
05/30/24 1:20:29 AM 360 0.0 0.0 59 81 68.1 58.4 29.979 13.07 0.0 0 0.00 0.00 0.00 0.00
05/30/24 1:21:19 AM 360 0.0 0.0 59 81 68.1 58.4 29.979 13.07 0.0 0 0.00 0.00 0.00 0.00
05/30/24 1:22:30 AM 360 0.0 0.0 59 81 68.1 58.4 29.976 13.07 0.0 0 0.00 0.00 0.00 0.00
05/30/24 1:23:22 AM 360 0.0 0.0 59 81 68.1 58.3 29.976 13.07 0.0 0 0.00 0.00 0.00 0.00
05/30/24 1:24:30 AM 360 0.0 0.0 59 81 68.0 58.3 29.975 13.07 0.0 0 0.00 0.00 0.00 0.00
05/30/24 1:25:23 AM 360 0.0 0.0 59 81 68.0 58.3 29.975 13.07 0.0 0 0.00 0.00 0.00 0.00
05/30/24 1:26:37 AM 360 0.0 0.0 59 81 67.9 58.2 29.975 13.07 0.0 0 0.00 0.00 0.00 0.00
05/30/24 1:27:26 AM 360 0.0 0.0 59 81 67.9 58.2 29.975 13.07 0.0 0 0.00 0.00 0.00 0.00
05/30/24 1:28:19 AM 360 0.0 0.0 59 81 67.9 58.2 29.974 13.07 0.0 0 0.00 0.00 0.00 0.00
05/30/24 1:29:27 AM 360 0.0 0.0 59 81 67.8 58.1 29.976 13.07 0.0 0 0.00 0.00 0.00 0.00
05/30/24 1:30:19 AM 360 0.0 0.0 59 81 67.8 58.1 29.974 13.07 0.0 0 0.00 0.00 0.00 0.00
05/30/24 1:31:30 AM 360 0.0 0.0 59 81 67.8 58.1 29.975 13.07 0.0 0 0.00 0.00 0.00 0.00
05/30/24 1:32:23 AM 360 0.0 0.0 59 81 67.8 58.1 29.975 13.07 0.0 0 0.00 0.00 0.00 0.00
05/30/24 1:33:33 AM 360 0.0 0.0 60 81 67.7 58.0 29.977 13.07 0.0 0 0.00 0.00 0.00 0.00
05/30/24 1:34:26 AM 360 0.0 0.0 60 81 67.7 58.0 29.977 13.07 0.0 0 0.00 0.00 0.00 0.00
05/30/24 1:35:34 AM 360 0.0 0.0 60 82 67.7 58.0 29.974 13.07 0.0 0 0.00 0.00 0.00 0.00
05/30/24 1:36:27 AM 360 0.0 0.0 60 82 67.7 58.0 29.974 13.07 0.0 0 0.00 0.00 0.00 0.00
05/30/24 1:37:19 AM 360 0.0 0.0 60 82 67.7 58.0 29.973 13.07 0.0 0 0.00 0.00 0.00 0.00
05/30/24 1:38:30 AM 360 0.0 0.0 60 82 67.7 58.0 29.972 13.07 0.0 0 0.00 0.00 0.00 0.00
05/30/24 1:39:23 AM 360 0.0 0.0 60 82 67.7 57.9 29.972 13.07 0.0 0 0.00 0.00 0.00 0.00
05/30/24 1:40:30 AM 360 0.0 0.0 60 82 67.6 57.9 29.972 13.07 0.0 0 0.00 0.00 0.00 0.00
05/30/24 1:41:23 AM 360 0.0 0.0 60 82 67.6 57.9 29.972 13.07 0.0 0 0.00 0.00 0.00 0.00
05/30/24 1:42:16 AM 360 0.0 0.0 60 82 67.6 57.8 29.972 13.07 0.0 0 0.00 0.00 0.00 0.00
05/30/24 1:43:26 AM 360 0.0 0.0 60 82 67.6 57.8 29.971 13.07 0.0 0 0.00 0.00 0.00 0.00
05/30/24 1:44:19 AM 360 0.0 0.0 60 82 67.6 57.8 29.971 13.07 0.0 0 0.00 0.00 0.00 0.00
05/30/24 1:45:30 AM 360 0.0 0.0 60 82 67.5 57.8 29.972 13.07 0.0 0 0.00 0.00 0.00 0.00
05/30/24 1:46:20 AM 360 0.0 0.0 60 82 67.6 57.8 29.972 13.07 0.0 0 0.00 0.00 0.00 0.00
05/30/24 1:47:30 AM 360 0.0 0.0 60 82 67.5 57.8 29.970 13.07 0.0 0 0.00 0.00 0.00 0.00
05/30/24 1:48:23 AM 360 0.0 0.0 60 82 67.5 57.8 29.970 13.07 0.0 0 0.00 0.00 0.00 0.00
05/30/24 1:49:34 AM 360 0.0 0.0 60 82 67.5 57.7 29.969 13.07 0.0 0 0.00 0.00 0.00 0.00
05/30/24 1:50:27 AM 360 0.0 0.0 60 82 67.5 57.7 29.969 13.07 0.0 0 0.00 0.00 0.00 0.00
05/30/24 1:51:34 AM 360 0.0 0.0 60 82 67.5 57.7 29.969 13.07 0.0 0 0.00 0.00 0.00 0.00
05/30/24 1:52:24 AM 360 0.0 0.0 60 82 67.5 57.7 29.969 13.07 0.0 0 0.00 0.00 0.00 0.00
05/30/24 1:53:35 AM 360 0.0 0.0 60 82 67.4 57.7 29.968 13.07 0.0 0 0.00 0.00 0.00 0.00
05/30/24 1:54:28 AM 360 0.0 0.0 60 82 67.4 57.6 29.966 13.07 0.0 0 0.00 0.00 0.00 0.00
05/30/24 1:55:20 AM 360 0.0 0.0 60 82 67.4 57.6 29.966 13.07 0.0 0 0.00 0.00 0.00 0.00
05/30/24 1:56:28 AM 360 0.0 0.0 60 82 67.4 57.6 29.969 13.07 0.0 0 0.00 0.00 0.00 0.00
05/30/24 1:57:21 AM 360 0.0 0.0 60 82 67.4 57.5 29.969 13.07 0.0 0 0.00 0.00 0.00 0.00
05/30/24 1:58:32 AM 360 0.0 0.0 60 82 67.3 57.5 29.967 13.07 0.0 0 0.00 0.00 0.00 0.00
05/30/24 1:59:24 AM 360 0.0 0.0 60 82 67.3 57.5 29.967 13.07 0.0 0 0.00 0.00 0.00 0.00
05/30/24 2:00:38 AM 360 0.0 0.0 60 82 67.3 57.5 29.966 13.07 0.0 0 0.00 0.00 0.00 0.00
05/30/24 2:01:22 AM 360 0.0 0.0 60 82 67.3 57.5 29.966 13.07 0.0 0 0.00 0.00 0.00 0.00
05/30/24 2:02:18 AM 360 0.0 0.0 60 82 67.3 57.5 29.969 13.07 0.0 0 0.00 0.00 0.00 0.00
05/30/24 2:03:29 AM 360 0.0 0.0 60 83 67.2 57.5 29.968 13.07 0.0 0 0.00 0.00 0.00 0.00
05/30/24 2:04:18 AM 360 0.0 0.0 60 83 67.2 57.5 29.968 13.07 0.0 0 0.00 0.00 0.00 0.00
05/30/24 2:05:32 AM 360 0.0 0.0 61 83 67.2 57.4 29.967 13.07 0.0 0 0.00 0.00 0.00 0.00
05/30/24 2:06:22 AM 360 0.0 0.0 61 83 67.2 57.4 29.967 13.07 0.0 0 0.00 0.00 0.00 0.00
05/30/24 2:07:29 AM 360 0.0 0.0 61 83 67.2 57.4 29.965 13.07 0.0 0 0.00 0.00 0.00 0.00
05/30/24 2:08:19 AM 360 0.0 0.0 61 83 67.2 57.4 29.965 13.07 0.0 0 0.00 0.00 0.00 0.00
05/30/24 2:09:45 AM 360 0.0 0.0 61 82 67.1 57.3 29.966 13.07 0.0 0 0.00 0.00 0.00 0.00
05/30/24 2:10:35 AM 360 0.0 0.0 61 82 67.1 57.3 29.967 13.07 0.0 0 0.00 0.00 0.00 0.00
05/30/24 2:11:27 AM 360 0.0 0.0 61 82 67.1 57.3 29.967 13.07 0.0 0 0.00 0.00 0.00 0.00
05/30/24 2:12:35 AM 360 0.0 0.0 61 82 67.1 57.2 29.970 13.07 0.0 0 0.00 0.00 0.00 0.00
05/30/24 2:13:25 AM 360 0.0 0.0 61 82 67.1 57.2 29.970 13.07 0.0 0 0.00 0.00 0.00 0.00
05/30/24 2:14:17 AM 360 0.0 0.0 61 82 67.1 57.1 29.968 13.07 0.0 0 0.00 0.00 0.00 0.00
05/30/24 2:15:52 AM 360 0.0 0.0 61 82 67.0 57.1 29.966 13.07 0.0 0 0.00 0.00 0.00 0.00
05/30/24 2:16:21 AM 360 0.0 0.0 61 83 67.0 57.1 29.966 13.07 0.0 0 0.00 0.00 0.00 0.00
05/30/24 2:17:35 AM 360 0.0 0.0 61 83 67.0 57.1 29.967 13.07 0.0 0 0.00 0.00 0.00 0.00
05/30/24 2:18:24 AM 360 0.0 0.0 61 83 67.0 57.1 29.967 13.07 0.0 0 0.00 0.00 0.00 0.00
05/30/24 2:19:35 AM 360 0.0 0.0 61 83 67.0 57.0 29.969 13.07 0.0 0 0.00 0.00 0.00 0.00
05/30/24 2:20:25 AM 360 0.0 0.0 61 83 67.0 57.0 29.969 13.07 0.0 0 0.00 0.00 0.00 0.00
05/30/24 2:22:27 AM 360 0.0 0.0 61 83 66.9 57.0 29.967 13.07 0.0 0 0.00 0.00 0.00 0.00
05/30/24 2:24:29 AM 360 0.0 0.0 61 83 66.9 57.0 29.966 13.07 0.0 0 0.00 0.00 0.00 0.00
05/30/24 2:25:22 AM 360 0.0 0.0 61 83 66.9 57.0 29.966 13.07 0.0 0 0.00 0.00 0.00 0.00
05/30/24 2:26:33 AM 360 0.0 0.0 61 83 66.8 57.0 29.963 13.07 0.0 0 0.00 0.00 0.00 0.00
05/30/24 2:27:23 AM 360 0.0 0.0 61 83 66.8 56.9 29.963 13.07 0.0 0 0.00 0.00 0.00 0.00
05/30/24 2:28:31 AM 360 0.0 0.0 61 83 66.8 56.9 29.964 13.07 0.0 0 0.00 0.00 0.00 0.00
05/30/24 2:29:23 AM 360 0.0 0.0 61 83 66.8 56.9 29.964 13.07 0.0 0 0.00 0.00 0.00 0.00
05/30/24 2:30:37 AM 360 0.0 0.0 61 83 66.8 56.9 29.962 13.07 0.0 0 0.00 0.00 0.00 0.00
05/30/24 2:31:27 AM 360 0.0 0.0 61 84 66.8 56.9 29.962 13.07 0.0 0 0.00 0.00 0.00 0.00
05/30/24 2:32:17 AM 360 0.0 0.0 61 84 66.8 56.9 29.963 13.07 0.0 0 0.00 0.00 0.00 0.00
05/30/24 2:33:31 AM 360 0.0 0.0 61 84 66.8 56.9 29.960 13.07 0.0 0 0.00 0.00 0.00 0.00
05/30/24 2:34:17 AM 360 0.0 0.0 61 84 66.8 56.9 29.960 13.07 0.0 0 0.00 0.00 0.00 0.00
05/30/24 2:35:31 AM 360 0.0 0.0 61 84 66.7 56.9 29.962 13.07 0.0 0 0.00 0.00 0.00 0.00
05/30/24 2:36:21 AM 360 0.0 0.0 61 84 66.7 56.9 29.962 13.07 0.0 0 0.00 0.00 0.00 0.00
05/30/24 2:37:35 AM 360 0.0 0.0 61 84 66.7 56.8 29.958 13.07 0.0 0 0.00 0.00 0.00 0.00
05/30/24 2:38:24 AM 360 0.0 0.0 61 84 66.7 56.8 29.958 13.07 0.0 0 0.00 0.00 0.00 0.00
05/30/24 2:39:32 AM 360 0.0 0.0 61 84 66.7 56.8 29.960 13.07 0.0 0 0.00 0.00 0.00 0.00
05/30/24 2:40:22 AM 360 0.0 0.0 61 84 66.7 56.8 29.960 13.07 0.0 0 0.00 0.00 0.00 0.00
05/30/24 2:41:36 AM 360 0.0 0.0 61 84 66.7 56.8 29.960 13.07 0.0 0 0.00 0.00 0.00 0.00
05/30/24 2:42:29 AM 360 0.0 0.0 61 84 66.7 56.8 29.958 13.07 0.0 0 0.00 0.00 0.00 0.00
05/30/24 2:43:18 AM 360 0.0 0.0 61 84 66.7 56.8 29.958 13.07 0.0 0 0.00 0.00 0.00 0.00
05/30/24 2:44:26 AM 360 0.0 0.0 61 84 66.7 56.8 29.958 13.07 0.0 0 0.00 0.00 0.00 0.00
05/30/24 2:45:19 AM 360 0.0 0.0 61 84 66.7 56.8 29.957 13.07 0.0 0 0.00 0.00 0.00 0.00
05/30/24 2:46:33 AM 360 0.0 0.0 61 84 66.6 56.8 29.958 13.07 0.0 0 0.00 0.00 0.00 0.00
05/30/24 2:47:25 AM 360 0.0 0.0 61 84 66.6 56.7 29.958 13.07 0.0 0 0.00 0.00 0.00 0.00
05/30/24 2:48:36 AM 360 0.0 0.0 61 84 66.6 56.7 29.959 13.07 0.0 0 0.00 0.00 0.00 0.00
05/30/24 2:49:26 AM 360 0.0 0.0 61 84 66.6 56.7 29.959 13.07 0.0 0 0.00 0.00 0.00 0.00
05/30/24 2:50:34 AM 360 0.0 0.0 61 84 66.6 56.7 29.957 13.07 0.0 0 0.00 0.00 0.00 0.00
05/30/24 2:51:26 AM 360 0.0 0.0 61 84 66.6 56.8 29.957 13.07 0.0 0 0.00 0.00 0.00 0.00
05/30/24 2:52:19 AM 360 0.0 0.0 61 84 66.6 56.7 29.957 13.07 0.0 0 0.00 0.00 0.00 0.00
05/30/24 2:53:30 AM 360 0.0 0.0 61 84 66.5 56.7 29.956 13.07 0.0 0 0.00 0.00 0.00 0.00
05/30/24 2:54:23 AM 360 0.0 0.0 61 84 66.5 56.7 29.956 13.07 0.0 0 0.00 0.00 0.00 0.00
05/30/24 2:55:30 AM 360 0.0 0.0 61 84 66.5 56.7 29.956 13.07 0.0 0 0.00 0.00 0.00 0.00
05/30/24 2:56:23 AM 360 0.0 0.0 61 84 66.5 56.7 29.956 13.07 0.0 0 0.00 0.00 0.00 0.00
05/30/24 2:57:34 AM 360 0.0 0.0 61 84 66.5 56.7 29.957 13.07 0.0 0 0.00 0.00 0.00 0.00
05/30/24 2:58:27 AM 360 0.0 0.0 61 84 66.5 56.7 29.957 13.07 0.0 0 0.00 0.00 0.00 0.00
05/30/24 2:59:17 AM 360 0.0 0.0 61 84 66.4 56.6 29.956 13.07 0.0 0 0.00 0.00 0.00 0.00
05/30/24 3:00:27 AM 360 0.0 0.0 61 84 66.4 56.6 29.955 13.07 0.0 0 0.00 0.00 0.00 0.00
05/30/24 3:02:30 AM 360 0.0 0.0 61 84 66.3 56.6 29.956 13.07 0.0 0 0.00 0.00 0.00 0.00
05/30/24 3:03:20 AM 360 0.0 0.0 62 84 66.3 56.6 29.956 13.07 0.0 0 0.00 0.00 0.00 0.00
05/30/24 3:04:33 AM 360 0.0 0.0 62 84 66.3 56.6 29.955 13.07 0.0 0 0.00 0.00 0.00 0.00
05/30/24 3:05:23 AM 360 0.0 0.0 62 84 66.3 56.5 29.955 13.07 0.0 0 0.00 0.00 0.00 0.00
05/30/24 3:06:34 AM 360 0.0 0.0 62 84 66.2 56.5 29.956 13.07 0.0 0 0.00 0.00 0.00 0.00
05/30/24 3:07:24 AM 360 0.0 0.0 62 84 66.2 56.4 29.956 13.07 0.0 0 0.00 0.00 0.00 0.00
05/30/24 3:08:16 AM 360 0.0 0.0 62 85 66.2 56.4 29.954 13.07 0.0 0 0.00 0.00 0.00 0.00
05/30/24 3:09:30 AM 360 0.0 0.0 62 85 66.2 56.4 29.956 13.07 0.0 0 0.00 0.00 0.00 0.00
05/30/24 3:10:23 AM 360 0.0 0.0 62 85 66.2 56.4 29.956 13.07 0.0 0 0.00 0.00 0.00 0.00
05/30/24 3:11:31 AM 360 0.0 0.0 62 85 66.1 56.4 29.955 13.07 0.0 0 0.00 0.00 0.00 0.00
05/30/24 3:12:20 AM 360 0.0 0.0 62 85 66.1 56.4 29.955 13.07 0.0 0 0.00 0.00 0.00 0.00
05/30/24 3:13:34 AM 360 0.0 0.0 62 85 66.1 56.4 29.954 13.07 0.0 0 0.00 0.00 0.00 0.00
05/30/24 3:14:27 AM 360 0.0 0.0 62 85 66.1 56.4 29.954 13.07 0.0 0 0.00 0.00 0.00 0.00
05/30/24 3:15:20 AM 360 0.0 0.0 62 85 66.1 56.3 29.954 13.07 0.0 0 0.00 0.00 0.00 0.00
05/30/24 3:16:28 AM 360 0.0 0.0 62 85 66.1 56.3 29.955 13.07 0.0 0 0.00 0.00 0.00 0.00
05/30/24 3:17:17 AM 360 0.0 0.0 62 85 66.1 56.3 29.951 13.07 0.0 0 0.00 0.00 0.00 0.00
05/30/24 3:18:28 AM 360 0.0 0.0 62 85 66.0 56.3 29.955 13.07 0.0 0 0.00 0.00 0.00 0.00
05/30/24 3:19:21 AM 360 0.0 0.0 62 85 66.0 56.3 29.955 13.07 0.0 0 0.00 0.00 0.00 0.00
05/30/24 3:20:32 AM 360 0.0 0.0 62 85 66.0 56.3 29.953 13.07 0.0 0 0.00 0.00 0.00 0.00
05/30/24 3:21:25 AM 360 0.0 0.0 62 85 66.0 56.3 29.953 13.07 0.0 0 0.00 0.00 0.00 0.00
05/30/24 3:22:33 AM 360 0.0 0.0 62 85 66.0 56.3 29.951 13.07 0.0 0 0.00 0.00 0.00 0.00
05/30/24 3:23:25 AM 360 0.0 0.0 62 85 66.0 56.2 29.951 13.07 0.0 0 0.00 0.00 0.00 0.00
05/30/24 3:24:18 AM 360 0.0 0.0 62 85 66.0 56.2 29.952 13.07 0.0 0 0.00 0.00 0.00 0.00
05/30/24 3:25:32 AM 360 0.0 0.0 62 85 66.0 56.2 29.953 13.07 0.0 0 0.00 0.00 0.00 0.00
05/30/24 3:26:22 AM 360 0.0 0.0 62 85 66.0 56.2 29.953 13.07 0.0 0 0.00 0.00 0.00 0.00
05/30/24 3:27:29 AM 360 0.0 0.0 62 85 65.9 56.2 29.952 13.07 0.0 0 0.00 0.00 0.00 0.00
05/30/24 3:28:22 AM 360 0.0 0.0 62 85 65.9 56.2 29.952 13.07 0.0 0 0.00 0.00 0.00 0.00
05/30/24 3:29:33 AM 360 0.0 0.0 62 85 65.9 56.2 29.953 13.07 0.0 0 0.00 0.00 0.00 0.00
05/30/24 3:30:26 AM 360 0.0 0.0 62 85 65.9 56.2 29.953 13.07 0.0 0 0.00 0.00 0.00 0.00
05/30/24 3:31:19 AM 360 0.0 0.0 62 85 65.9 56.2 29.950 13.07 0.0 0 0.00 0.00 0.00 0.00
05/30/24 3:32:27 AM 360 0.0 0.0 62 85 65.9 56.2 29.949 13.07 0.0 0 0.00 0.00 0.00 0.00
05/30/24 3:34:29 AM 360 0.0 0.0 62 85 65.9 56.2 29.949 13.07 0.0 0 0.00 0.00 0.00 0.00
05/30/24 3:35:19 AM 360 0.0 0.0 62 85 65.9 56.1 29.949 13.07 0.0 0 0.00 0.00 0.00 0.00
05/30/24 3:36:33 AM 360 0.0 0.0 62 85 65.8 56.2 29.950 13.07 0.0 0 0.00 0.00 0.00 0.00
05/30/24 3:37:22 AM 360 0.0 0.0 62 85 65.8 56.1 29.950 13.07 0.0 0 0.00 0.00 0.00 0.00
05/30/24 3:38:33 AM 360 0.0 0.0 62 85 65.8 56.1 29.948 13.07 0.0 0 0.00 0.00 0.00 0.00
05/30/24 3:39:23 AM 360 0.0 0.0 62 85 65.8 56.1 29.948 13.07 0.0 0 0.00 0.00 0.00 0.00
05/30/24 3:40:37 AM 360 0.0 0.0 62 85 65.8 56.1 29.945 13.07 0.0 0 0.00 0.00 0.00 0.00
05/30/24 3:41:27 AM 360 0.0 0.0 62 85 65.8 56.0 29.945 13.07 0.0 0 0.00 0.00 0.00 0.00
05/30/24 3:42:19 AM 360 0.0 0.0 62 85 65.8 56.0 29.948 13.07 0.0 0 0.00 0.00 0.00 0.00
05/30/24 3:43:27 AM 360 0.0 0.0 62 85 65.7 56.0 29.946 13.07 0.0 0 0.00 0.00 0.00 0.00
05/30/24 3:44:20 AM 360 0.0 0.0 62 85 65.8 56.0 29.944 13.07 0.0 0 0.00 0.00 0.00 0.00
05/30/24 3:45:31 AM 360 0.0 0.0 62 86 65.8 56.0 29.948 13.07 0.0 0 0.00 0.00 0.00 0.00
05/30/24 3:46:21 AM 360 0.0 0.0 62 86 65.8 56.0 29.948 13.07 0.0 0 0.00 0.00 0.00 0.00
05/30/24 3:47:34 AM 360 0.0 0.0 62 86 65.7 56.0 29.946 13.07 0.0 0 0.00 0.00 0.00 0.00
05/30/24 3:48:24 AM 360 0.0 0.0 62 86 65.7 55.9 29.946 13.07 0.0 0 0.00 0.00 0.00 0.00
05/30/24 3:49:35 AM 360 0.0 0.0 62 86 65.7 55.9 29.942 13.07 0.0 0 0.00 0.00 0.00 0.00
05/30/24 3:50:25 AM 360 0.0 0.0 62 86 65.7 55.9 29.942 13.07 0.0 0 0.00 0.00 0.00 0.00
05/30/24 3:51:17 AM 360 0.0 0.0 62 86 65.7 55.9 29.944 13.07 0.0 0 0.00 0.00 0.00 0.00
05/30/24 3:52:28 AM 360 0.0 0.0 62 86 65.7 55.9 29.944 13.07 0.0 0 0.00 0.00 0.00 0.00
05/30/24 3:53:21 AM 360 0.0 0.0 62 86 65.7 55.9 29.944 13.07 0.0 0 0.00 0.00 0.00 0.00
05/30/24 3:54:29 AM 360 0.0 0.0 62 86 65.7 55.9 29.945 13.07 0.0 0 0.00 0.00 0.00 0.00
05/30/24 3:55:19 AM 360 0.0 0.0 62 86 65.7 55.9 29.945 13.07 0.0 0 0.00 0.00 0.00 0.00
05/30/24 3:56:30 AM 360 0.0 0.0 62 86 65.6 55.9 29.945 13.07 0.0 0 0.00 0.00 0.00 0.00
05/30/24 3:57:22 AM 360 0.0 0.0 62 86 65.6 55.9 29.945 13.07 0.0 0 0.00 0.00 0.00 0.00
05/30/24 3:58:36 AM 360 0.0 0.0 62 86 65.6 55.9 29.945 13.07 0.0 0 0.00 0.00 0.00 0.00
05/30/24 3:59:23 AM 360 0.0 0.0 62 86 65.6 55.9 29.945 13.07 0.0 0 0.00 0.00 0.00 0.00
05/30/24 4:00:58 AM 360 0.0 0.0 62 86 65.6 55.9 29.948 13.07 0.0 0 0.00 0.00 0.00 0.00
05/30/24 4:01:29 AM 360 0.0 0.0 62 86 65.6 55.8 29.949 13.07 0.0 0 0.00 0.00 0.00 0.00
05/30/24 4:02:22 AM 360 0.0 0.0 62 86 65.6 55.8 29.949 13.07 0.0 0 0.00 0.00 0.00 0.00
05/30/24 4:03:33 AM 360 0.0 0.0 62 86 65.5 55.8 29.946 13.07 0.0 0 0.00 0.00 0.00 0.00
05/30/24 4:04:26 AM 360 0.0 0.0 62 86 65.5 55.8 29.946 13.07 0.0 0 0.00 0.00 0.00 0.00
05/30/24 4:05:34 AM 360 0.0 0.0 62 86 65.5 55.8 29.946 13.07 0.0 0 0.00 0.00 0.00 0.00
05/30/24 4:06:27 AM 360 0.0 0.0 62 86 65.5 55.7 29.946 13.07 0.0 0 0.00 0.00 0.00 0.00
05/30/24 4:07:19 AM 360 0.0 0.0 62 86 65.5 55.7 29.949 13.07 0.0 0 0.00 0.00 0.00 0.00
05/30/24 4:08:30 AM 360 0.0 0.0 62 86 65.5 55.6 29.948 13.07 0.0 0 0.00 0.00 0.00 0.00
05/30/24 4:09:23 AM 360 0.0 0.0 63 86 65.5 55.7 29.948 13.07 0.0 0 0.00 0.00 0.00 0.00
05/30/24 4:10:22 AM 360 0.0 0.0 63 86 65.4 55.6 29.949 13.07 0.0 0 0.00 0.00 0.00 0.00
05/30/24 4:11:33 AM 360 0.0 0.0 63 86 65.4 55.5 29.953 13.07 0.0 0 0.00 0.00 0.00 0.00
05/30/24 4:12:22 AM 360 0.0 0.0 63 86 65.4 55.5 29.953 13.07 0.0 0 0.00 0.00 0.00 0.00
05/30/24 4:13:33 AM 360 0.0 0.0 63 86 65.4 55.5 29.952 13.07 0.0 0 0.00 0.00 0.00 0.00
05/30/24 4:14:26 AM 360 0.0 0.0 63 86 65.4 55.5 29.952 13.07 0.0 0 0.00 0.00 0.00 0.00
05/30/24 4:15:19 AM 360 0.0 0.0 63 86 65.4 55.5 29.949 13.07 0.0 0 0.00 0.00 0.00 0.00
05/30/24 4:16:24 AM 360 0.0 0.0 63 86 65.4 55.5 29.950 13.07 0.0 0 0.00 0.00 0.00 0.00
05/30/24 4:17:17 AM 360 0.0 0.0 63 86 65.4 55.4 29.950 13.07 0.0 0 0.00 0.00 0.00 0.00
05/30/24 4:18:28 AM 360 0.0 0.0 63 86 65.3 55.5 29.949 13.07 0.0 0 0.00 0.00 0.00 0.00
05/30/24 4:19:20 AM 360 0.0 0.0 63 86 65.3 55.5 29.949 13.07 0.0 0 0.00 0.00 0.00 0.00
05/30/24 4:20:31 AM 360 0.0 0.0 63 86 65.3 55.5 29.950 13.07 0.0 0 0.00 0.00 0.00 0.00
05/30/24 4:21:18 AM 360 0.0 0.0 63 86 65.3 55.5 29.950 13.07 0.0 0 0.00 0.00 0.00 0.00
05/30/24 4:22:32 AM 360 0.0 0.0 63 86 65.3 55.5 29.953 13.07 0.0 0 0.00 0.00 0.00 0.00
05/30/24 4:23:21 AM 360 0.0 0.0 63 86 65.3 55.5 29.953 13.07 0.0 0 0.00 0.00 0.00 0.00
05/30/24 4:24:36 AM 360 0.0 0.0 63 86 65.3 55.5 29.951 13.07 0.0 0 0.00 0.00 0.00 0.00
05/30/24 4:25:28 AM 360 0.0 0.0 63 86 65.2 55.4 29.950 13.07 0.0 0 0.00 0.00 0.00 0.00
05/30/24 4:27:28 AM 360 0.0 0.0 63 86 65.2 55.4 29.949 13.07 0.0 0 0.00 0.00 0.00 0.00
05/30/24 4:28:20 AM 360 0.0 0.0 63 86 65.2 55.4 29.949 13.07 0.0 0 0.00 0.00 0.00 0.00
05/30/24 4:29:31 AM 360 0.0 0.0 63 86 65.2 55.4 29.951 13.07 0.0 0 0.00 0.00 0.00 0.00
05/30/24 4:30:27 AM 360 0.0 0.0 63 86 65.2 55.4 29.951 13.07 0.0 0 0.00 0.00 0.00 0.00
05/30/24 4:32:27 AM 360 0.0 0.0 63 86 65.2 55.3 29.950 13.07 0.0 0 0.00 0.00 0.00 0.00
05/30/24 4:34:29 AM 360 0.0 0.0 63 86 65.2 55.3 29.950 13.07 0.0 0 0.00 0.00 0.00 0.00
05/30/24 4:35:22 AM 360 0.0 0.0 63 86 65.2 55.3 29.950 13.07 0.0 0 0.00 0.00 0.00 0.00
05/30/24 4:36:33 AM 360 0.0 0.0 63 86 65.2 55.3 29.951 13.07 0.0 0 0.00 0.00 0.00 0.00
05/30/24 4:37:20 AM 360 0.0 0.0 63 86 65.2 55.3 29.951 13.07 0.0 0 0.00 0.00 0.00 0.00
05/30/24 4:38:31 AM 360 0.0 0.0 63 86 65.2 55.3 29.953 13.07 0.0 0 0.00 0.00 0.00 0.00
05/30/24 4:39:23 AM 360 0.0 0.0 63 86 65.2 55.3 29.953 13.07 0.0 0 0.00 0.00 0.00 0.00
05/30/24 4:40:35 AM 360 0.0 0.0 63 87 65.2 55.2 29.952 13.07 0.0 0 0.00 0.00 0.00 0.00
05/30/24 4:41:27 AM 360 0.0 0.0 63 87 65.2 55.3 29.952 13.07 0.0 0 0.00 0.00 0.00 0.00
05/30/24 4:42:35 AM 360 0.0 0.0 63 87 65.2 55.3 29.955 13.07 0.0 0 0.00 0.00 0.00 0.00
05/30/24 4:43:25 AM 360 0.0 0.0 63 87 65.2 55.3 29.955 13.07 0.0 0 0.00 0.00 0.00 0.00
05/30/24 4:44:18 AM 360 0.0 0.0 63 86 65.2 55.2 29.952 13.07 0.0 0 0.00 0.00 0.00 0.00
05/30/24 4:45:32 AM 360 0.0 0.0 63 86 65.1 55.2 29.950 13.07 0.0 0 0.00 0.00 0.00 0.00
05/30/24 4:46:21 AM 360 0.0 0.0 63 86 65.1 55.1 29.950 13.07 0.0 0 0.00 0.00 0.00 0.00
05/30/24 4:47:29 AM 360 0.0 0.0 63 86 65.1 55.1 29.951 13.07 0.0 0 0.00 0.00 0.00 0.00
05/30/24 4:48:19 AM 360 0.0 0.0 63 86 65.1 55.0 29.951 13.07 0.0 0 0.00 0.00 0.00 0.00
05/30/24 4:49:33 AM 360 0.0 0.0 63 86 65.1 55.0 29.951 13.07 0.0 0 0.00 0.00 0.00 0.00
05/30/24 4:50:23 AM 360 0.0 0.0 63 86 65.1 55.0 29.951 13.07 0.0 0 0.00 0.00 0.00 0.00
05/30/24 4:51:34 AM 360 0.0 0.0 63 87 65.0 55.0 29.952 13.07 0.0 0 0.00 0.00 0.00 0.00
05/30/24 4:52:23 AM 360 0.0 0.0 63 87 65.0 55.0 29.952 13.07 0.0 0 0.00 0.00 0.00 0.00
05/30/24 4:53:31 AM 360 0.0 0.0 63 87 65.0 55.1 29.952 13.07 0.0 0 0.00 0.00 0.00 0.00
05/30/24 4:54:24 AM 360 0.0 0.0 63 87 65.0 55.1 29.952 13.07 0.0 0 0.00 0.00 0.00 0.00
05/30/24 4:55:35 AM 360 0.0 0.0 63 87 65.0 55.1 29.951 13.07 0.0 0 0.00 0.00 0.00 0.00
05/30/24 4:56:28 AM 360 0.0 0.0 63 87 64.9 55.1 29.952 13.07 0.0 0 0.00 0.00 0.00 0.00
05/30/24 4:57:20 AM 360 0.0 0.0 63 87 64.9 55.1 29.952 13.07 0.0 0 0.00 0.00 0.00 0.00
05/30/24 4:58:28 AM 360 0.0 0.0 63 87 64.9 55.2 29.953 13.07 0.0 0 0.00 0.00 0.00 0.00
05/30/24 4:59:18 AM 360 0.0 0.0 63 87 64.9 55.2 29.953 13.07 0.0 0 0.00 0.00 0.00 0.00
05/30/24 5:00:32 AM 360 0.0 0.0 63 87 64.9 55.2 29.949 13.07 0.0 0 0.00 0.00 0.00 0.00
05/30/24 5:01:25 AM 360 0.0 0.0 63 87 64.9 55.3 29.949 13.07 0.0 0 0.00 0.00 0.00 0.00
05/30/24 5:02:36 AM 360 0.0 0.0 63 87 64.9 55.3 29.950 13.07 0.0 0 0.00 0.00 0.00 0.00
05/30/24 5:03:23 AM 360 0.0 0.0 63 87 64.9 55.3 29.950 13.07 0.0 0 0.00 0.00 0.00 0.00
05/30/24 5:04:31 AM 360 0.0 0.0 63 87 64.9 55.3 29.949 13.07 0.0 0 0.00 0.00 0.00 0.00
05/30/24 5:05:23 AM 360 0.0 0.0 63 87 64.9 55.3 29.949 13.07 0.0 0 0.00 0.00 0.00 0.00
05/30/24 5:06:34 AM 360 0.0 0.0 63 87 64.9 55.3 29.950 13.07 0.0 0 0.00 0.00 0.00 0.00
05/30/24 5:07:27 AM 360 0.0 0.0 63 87 64.9 55.3 29.950 13.07 0.0 0 0.00 0.00 0.00 0.00
05/30/24 5:08:17 AM 360 0.0 0.0 63 87 64.9 55.3 29.947 13.07 0.0 0 0.00 0.00 0.00 0.00
05/30/24 5:09:28 AM 360 0.0 0.0 63 87 64.9 55.3 29.948 13.07 0.0 0 0.00 0.00 0.00 0.00
05/30/24 5:10:18 AM 360 0.0 0.0 63 87 64.9 55.2 29.947 13.07 0.0 0 0.00 0.00 0.00 0.00
05/30/24 5:11:32 AM 360 0.0 0.0 63 87 64.9 55.2 29.945 13.07 0.0 0 0.00 0.00 0.00 0.00
05/30/24 5:12:22 AM 360 0.0 0.0 63 87 64.9 55.2 29.945 13.07 0.0 0 0.00 0.00 0.00 0.00
05/30/24 5:13:33 AM 360 0.0 0.0 63 87 64.9 55.2 29.944 13.07 0.0 0 0.00 0.00 0.00 0.00
05/30/24 5:14:19 AM 360 0.0 0.0 63 87 64.9 55.1 29.944 13.07 0.0 0 0.00 0.00 0.00 0.00
05/30/24 5:15:36 AM 360 0.0 0.0 63 87 64.8 55.1 29.945 13.07 0.0 0 0.00 0.00 0.00 0.00
05/30/24 5:16:26 AM 360 0.0 0.0 63 87 64.8 55.1 29.945 13.07 0.0 0 0.00 0.00 0.00 0.00
05/30/24 5:17:16 AM 360 0.0 0.0 63 87 64.8 55.1 29.943 13.07 0.0 0 0.00 0.00 0.00 0.00
05/30/24 5:18:30 AM 360 0.0 0.0 63 87 64.8 55.1 29.947 13.07 0.0 0 0.00 0.00 0.00 0.00
05/30/24 5:20:29 AM 360 0.0 0.0 63 87 64.7 55.0 29.945 13.07 0.0 0 0.00 0.00 0.00 0.00
05/30/24 5:21:22 AM 360 0.0 0.0 63 87 64.7 55.0 29.945 13.07 0.0 0 0.00 0.00 0.00 0.00
05/30/24 5:22:33 AM 360 0.0 0.0 63 87 64.7 55.0 29.945 13.07 0.0 0 0.00 0.00 0.00 0.00
05/30/24 5:23:26 AM 360 0.0 0.0 63 87 64.7 54.9 29.945 13.07 0.0 0 0.00 0.00 0.00 0.00
05/30/24 5:24:16 AM 360 0.0 0.0 63 87 64.7 54.9 29.946 13.07 0.0 0 0.00 0.00 0.00 0.00
05/30/24 5:25:24 AM 360 0.0 0.0 63 87 64.7 54.9 29.945 13.07 0.0 0 0.00 0.00 0.00 0.00
05/30/24 5:26:16 AM 360 0.0 0.0 63 87 64.7 54.9 29.947 13.07 0.0 0 0.00 0.00 0.00 0.00
05/30/24 5:27:27 AM 360 0.0 0.0 63 87 64.6 54.9 29.949 13.07 0.0 0 0.00 0.00 0.00 0.00
05/30/24 5:28:20 AM 360 0.0 0.0 63 87 64.6 54.9 29.949 13.07 0.0 0 0.00 0.00 0.00 0.00
05/30/24 5:29:34 AM 360 0.0 0.0 63 87 64.6 54.9 29.949 13.07 0.0 0 0.00 0.00 0.00 0.00
05/30/24 5:30:21 AM 360 0.0 0.0 63 87 64.6 54.9 29.949 13.07 0.0 0 0.00 0.00 0.00 0.00
05/30/24 5:31:32 AM 360 0.0 0.0 63 87 64.5 54.9 29.949 13.07 0.0 0 0.00 0.00 0.00 0.00
05/30/24 5:32:25 AM 360 0.0 0.0 63 87 64.5 54.8 29.949 13.07 0.0 0 0.00 0.00 0.00 0.00
05/30/24 5:33:18 AM 360 0.0 0.0 63 87 64.6 54.8 29.948 13.07 0.0 0 0.00 0.00 0.00 0.00
05/30/24 5:34:29 AM 360 0.0 0.0 63 87 64.5 54.8 29.949 13.07 0.0 0 0.00 0.00 0.00 0.00
05/30/24 5:35:37 AM 360 0.0 0.0 63 87 64.6 54.8 29.948 13.07 0.0 0 0.00 0.00 0.00 0.00
05/30/24 5:36:26 AM 360 0.0 0.0 63 87 64.7 54.8 29.948 13.07 0.0 0 0.00 0.00 0.00 0.00
05/30/24 5:37:19 AM 360 0.0 0.0 63 87 64.7 54.8 29.951 13.07 0.0 0 0.00 0.00 0.00 0.00
05/30/24 5:38:30 AM 360 0.0 0.0 63 87 64.7 54.8 29.947 13.07 0.0 0 0.00 0.00 0.00 0.00
05/30/24 5:39:23 AM 360 0.0 0.0 63 87 64.7 54.7 29.947 13.07 0.0 0 0.00 0.00 0.00 0.00
05/30/24 5:40:31 AM 360 0.0 0.0 63 87 64.8 54.7 29.952 13.07 0.0 0 0.00 0.00 0.00 0.00
05/30/24 5:41:21 AM 360 0.0 0.0 63 87 64.8 54.7 29.952 13.07 0.0 0 0.00 0.00 0.00 0.00
05/30/24 5:42:32 AM 360 0.0 0.0 63 87 64.9 54.7 29.950 13.07 0.0 5 0.00 0.00 0.00 0.00
05/30/24 5:43:25 AM 360 0.0 0.0 63 87 64.9 54.7 29.950 13.07 0.0 5 0.00 0.00 0.00 0.00
05/30/24 5:44:17 AM 360 0.0 0.0 63 87 64.9 54.6 29.949 13.07 0.0 5 0.00 0.00 0.00 0.00
05/30/24 5:45:31 AM 360 0.0 0.0 63 87 64.9 54.6 29.950 13.07 0.0 5 0.00 0.00 0.00 0.00
05/30/24 5:47:28 AM 360 0.0 0.0 63 87 65.0 54.5 29.951 13.07 0.0 7 0.00 0.00 0.00 0.00
05/30/24 5:48:21 AM 360 0.0 0.0 63 87 65.0 54.5 29.951 13.07 0.0 7 0.00 0.00 0.00 0.00
05/30/24 5:49:32 AM 360 0.0 0.0 63 87 65.0 54.4 29.953 13.07 0.0 7 0.00 0.00 0.00 0.00
05/30/24 5:50:24 AM 360 0.0 0.0 63 87 65.0 54.4 29.953 13.07 0.0 7 0.00 0.00 0.00 0.00
05/30/24 5:51:32 AM 360 0.0 0.0 63 87 65.0 54.4 29.954 13.07 0.0 9 0.00 0.00 0.00 0.00
05/30/24 5:52:22 AM 360 0.0 0.0 63 87 65.0 54.4 29.954 13.07 0.0 9 0.00 0.00 0.00 0.00
05/30/24 5:53:36 AM 360 0.0 0.0 63 87 65.2 54.4 29.954 13.07 0.0 9 0.00 0.00 0.00 0.00
05/30/24 5:54:29 AM 360 0.0 0.0 63 87 65.2 54.4 29.954 13.07 0.0 9 0.00 0.00 0.00 0.00
05/30/24 5:55:18 AM 360 0.0 0.0 63 87 65.1 54.4 29.957 13.07 0.0 11 0.00 0.00 0.00 0.00
05/30/24 5:56:26 AM 360 0.0 0.0 63 87 65.1 54.4 29.957 13.07 0.0 11 0.00 0.00 0.00 0.00
05/30/24 5:57:19 AM 360 0.0 0.0 63 87 65.2 54.4 29.956 13.07 0.0 11 0.00 0.00 0.00 0.00
05/30/24 5:58:30 AM 360 0.0 0.0 63 87 65.3 54.4 29.957 13.07 0.0 11 0.00 0.00 0.00 0.00
05/30/24 5:59:23 AM 360 0.0 0.0 63 87 65.3 54.4 29.957 13.07 0.0 11 0.00 0.00 0.00 0.00
05/30/24 6:00:34 AM 360 0.0 0.0 63 87 65.3 54.4 29.956 13.07 0.0 12 0.00 0.00 0.00 0.00
05/30/24 6:01:24 AM 360 0.0 0.0 63 87 65.3 54.4 29.956 13.07 0.0 12 0.00 0.00 0.00 0.00
05/30/24 6:02:32 AM 360 0.0 0.0 63 87 65.4 54.3 29.952 13.07 0.0 12 0.00 0.00 0.00 0.00
05/30/24 6:03:25 AM 360 0.0 0.0 63 87 65.4 54.3 29.952 13.07 0.0 12 0.00 0.00 0.00 0.00
05/30/24 6:04:36 AM 360 0.0 0.0 63 87 65.4 54.3 29.952 13.07 0.0 14 0.00 0.00 0.00 0.00
05/30/24 6:05:25 AM 360 0.0 0.0 63 87 65.4 54.3 29.952 13.07 0.0 14 0.00 0.00 0.00 0.00
05/30/24 6:06:18 AM 360 0.0 0.0 63 87 65.4 54.3 29.955 13.07 0.0 14 0.00 0.00 0.00 0.00
05/30/24 6:07:26 AM 360 0.0 0.0 63 88 65.5 54.3 29.953 13.07 0.0 14 0.00 0.00 0.00 0.00
05/30/24 6:08:16 AM 360 0.0 0.0 63 88 65.5 54.3 29.952 13.07 0.0 16 0.00 0.00 0.00 0.00
05/30/24 6:09:39 AM 360 0.0 0.0 63 88 65.6 54.3 29.952 13.07 0.0 18 0.00 0.00 0.00 0.00
05/30/24 6:10:32 AM 360 0.0 0.0 63 88 65.6 54.3 29.955 13.07 0.0 18 0.00 0.00 0.00 0.00
05/30/24 6:11:25 AM 360 0.0 0.0 63 88 65.6 54.2 29.955 13.07 0.0 18 0.00 0.00 0.00 0.00
05/30/24 6:12:33 AM 360 0.0 0.0 63 88 65.6 54.3 29.951 13.07 0.0 19 0.00 0.00 0.00 0.00
05/30/24 6:13:22 AM 360 0.0 0.0 63 88 65.6 54.2 29.951 13.07 0.0 19 0.00 0.00 0.00 0.00
05/30/24 6:14:34 AM 360 0.0 0.0 63 88 65.7 54.2 29.954 13.07 0.0 21 0.00 0.00 0.00 0.00
05/30/24 6:15:26 AM 360 0.0 0.0 63 87 65.7 54.2 29.954 13.07 0.0 21 0.00 0.00 0.00 0.00
05/30/24 6:16:16 AM 360 0.0 0.0 63 87 65.7 54.2 29.955 13.07 0.0 21 0.00 0.00 0.00 0.00
05/30/24 6:17:30 AM 360 0.0 0.0 63 88 65.7 54.2 29.954 13.07 0.0 23 0.00 0.00 0.00 0.00
05/30/24 6:18:17 AM 360 0.0 0.0 63 88 65.7 54.2 29.954 13.07 0.0 25 0.00 0.00 0.00 0.00
05/30/24 6:19:28 AM 360 0.0 0.0 63 87 65.8 54.2 29.957 13.07 0.0 33 0.00 0.00 0.00 0.00
05/30/24 6:20:21 AM 360 0.0 0.0 63 88 65.8 54.2 29.957 13.07 0.0 33 0.00 0.00 0.00 0.00
05/30/24 6:21:35 AM 360 0.0 0.0 63 88 65.8 54.2 29.959 13.07 0.0 33 0.00 0.00 0.00 0.00
05/30/24 6:22:25 AM 360 0.0 0.0 63 88 65.8 54.2 29.959 13.07 0.0 33 0.00 0.00 0.00 0.00
05/30/24 6:23:33 AM 360 0.0 0.0 63 88 65.9 54.2 29.959 13.07 0.0 33 0.00 0.00 0.00 0.00
05/30/24 6:24:25 AM 360 0.0 0.0 63 88 65.9 54.3 29.959 13.07 0.0 51 0.00 0.00 0.00 0.00
05/30/24 6:25:37 AM 360 0.0 0.0 63 88 66.0 54.3 29.957 13.07 0.0 53 0.00 0.00 0.00 0.00
05/30/24 6:26:29 AM 360 0.0 0.0 63 88 66.0 54.3 29.959 13.07 0.0 53 0.00 0.00 0.00 0.00
05/30/24 6:27:19 AM 360 0.0 0.0 63 88 66.0 54.4 29.959 13.07 0.0 53 0.00 0.00 0.00 0.00
05/30/24 6:28:27 AM 360 0.0 0.0 63 88 66.0 54.4 29.961 13.07 0.0 58 0.00 0.00 0.00 0.00
05/30/24 6:29:20 AM 360 0.0 0.0 63 88 66.0 54.5 29.961 13.07 0.0 58 0.00 0.00 0.00 0.00
05/30/24 6:30:55 AM 360 0.0 1.0 63 88 66.0 54.5 29.963 13.07 0.0 58 0.00 0.00 0.00 0.00
05/30/24 6:31:24 AM 360 0.0 1.0 63 88 66.0 54.6 29.963 13.07 0.0 58 0.00 0.00 0.00 0.00
05/30/24 6:32:17 AM 360 0.0 1.0 63 88 66.1 54.6 29.960 13.07 0.0 58 0.00 0.00 0.00 0.00
05/30/24 6:33:28 AM 360 0.0 1.0 63 88 66.1 54.7 29.960 13.07 0.0 58 0.00 0.00 0.00 0.00
05/30/24 6:34:36 AM 360 0.0 1.0 63 88 66.1 54.8 29.960 13.07 0.0 67 0.00 0.00 0.00 0.00
05/30/24 6:35:26 AM 360 0.0 1.0 63 88 66.1 54.8 29.960 13.07 0.0 67 0.00 0.00 0.00 0.00
05/30/24 6:36:18 AM 360 0.0 1.0 63 88 66.1 54.8 29.962 13.07 0.0 67 0.00 0.00 0.00 0.00
05/30/24 6:37:29 AM 360 0.0 1.0 63 88 66.2 54.9 29.960 13.07 0.0 70 0.00 0.00 0.00 0.00
05/30/24 6:38:19 AM 360 0.0 1.0 63 88 66.2 55.0 29.960 13.07 0.0 72 0.00 0.00 0.00 0.00
05/30/24 6:39:27 AM 360 0.0 1.0 63 88 66.2 55.1 29.960 13.07 0.0 74 0.00 0.00 0.00 0.00
05/30/24 6:40:20 AM 360 0.0 1.0 63 88 66.2 55.1 29.963 13.07 0.0 76 0.00 0.00 0.00 0.00
05/30/24 6:41:31 AM 360 0.0 1.0 63 88 66.2 55.3 29.963 13.07 0.0 77 0.00 0.00 0.00 0.00
05/30/24 6:42:21 AM 360 0.0 1.0 63 89 66.2 55.3 29.963 13.07 0.0 81 0.00 0.00 0.00 0.00
05/30/24 6:43:35 AM 360 0.0 1.0 63 89 66.3 55.4 29.962 13.07 0.0 83 0.00 0.00 0.00 0.00
05/30/24 6:44:25 AM 360 0.0 1.0 63 89 66.3 55.5 29.962 13.07 0.0 83 0.00 0.00 0.00 0.00
05/30/24 6:45:57 AM 360 0.0 1.0 63 89 66.3 55.6 29.963 13.07 0.0 88 0.00 0.00 0.00 0.00
05/30/24 6:46:25 AM 360 0.0 1.0 63 89 66.3 55.6 29.963 13.07 0.0 91 0.00 0.00 0.00 0.00
05/30/24 6:47:18 AM 360 0.0 1.0 63 89 66.3 55.7 29.964 13.07 0.0 91 0.00 0.00 0.00 0.00
05/30/24 6:48:29 AM 360 0.0 1.0 63 89 66.4 55.8 29.966 13.07 0.0 102 0.00 0.00 0.00 0.00
05/30/24 6:49:19 AM 360 0.0 1.0 63 89 66.4 55.8 29.966 13.07 0.0 102 0.00 0.00 0.00 0.00
05/30/24 6:50:27 AM 360 0.0 1.0 63 89 66.4 55.9 29.965 13.07 0.0 107 0.00 0.00 0.00 0.00
05/30/24 6:51:20 AM 360 0.0 1.0 63 89 66.4 56.0 29.965 13.07 0.0 107 0.00 0.00 0.00 0.00
05/30/24 6:52:34 AM 360 0.0 1.0 63 89 66.4 56.1 29.964 13.07 0.0 120 0.00 0.00 0.00 0.00
05/30/24 6:53:27 AM 360 0.0 1.0 63 89 66.4 56.2 29.964 13.07 0.0 120 0.00 0.00 0.00 0.00
05/30/24 6:54:17 AM 360 0.0 1.0 63 89 66.4 56.3 29.965 13.07 0.0 120 0.00 0.00 0.00 0.00
05/30/24 6:55:28 AM 360 0.0 1.0 63 89 66.4 56.4 29.965 13.07 0.0 120 0.00 0.00 0.00 0.00
05/30/24 6:56:36 AM 360 0.0 1.0 63 89 66.5 56.4 29.964 13.07 0.0 134 0.00 0.00 0.00 0.00
05/30/24 6:57:29 AM 360 0.0 1.0 63 89 66.5 56.5 29.964 13.07 0.0 134 0.00 0.00 0.00 0.00
05/30/24 6:58:19 AM 360 0.0 1.0 63 89 66.5 56.6 29.967 13.07 0.0 134 0.00 0.00 0.00 0.00
05/30/24 6:59:30 AM 360 0.0 1.0 63 89 66.5 56.6 29.966 13.07 0.0 142 0.00 0.00 0.00 0.00
05/30/24 7:00:44 AM 360 0.0 1.0 63 89 66.5 56.7 29.966 13.07 0.0 146 0.00 0.00 0.00 0.00
05/30/24 7:01:31 AM 360 0.0 1.0 63 89 66.5 56.9 29.966 13.07 0.0 149 0.00 0.00 0.00 0.00
05/30/24 7:02:23 AM 360 0.0 1.0 63 89 66.5 56.9 29.966 13.07 0.0 153 0.00 0.00 0.00 0.00
05/30/24 7:03:32 AM 360 0.0 1.0 63 89 66.5 57.1 29.965 13.07 0.0 158 0.00 0.00 0.00 0.00
05/30/24 7:04:24 AM 360 0.0 1.0 63 89 66.5 57.2 29.965 13.07 0.0 158 0.00 0.00 0.00 0.00
05/30/24 7:05:35 AM 360 0.0 1.0 63 89 66.5 57.4 29.967 13.07 0.0 163 0.00 0.00 0.00 0.00
05/30/24 7:06:25 AM 360 0.0 1.0 63 89 66.5 57.5 29.967 13.07 0.0 167 0.00 0.00 0.00 0.00
05/30/24 7:07:33 AM 360 0.0 1.0 63 89 66.6 57.7 29.966 13.07 0.0 167 0.00 0.00 0.00 0.00
05/30/24 7:08:26 AM 360 0.0 1.0 63 89 66.6 57.8 29.966 13.07 0.0 167 0.00 0.00 0.00 0.00
05/30/24 7:09:16 AM 360 0.0 1.0 63 89 66.6 57.9 29.965 13.07 0.0 167 0.00 0.00 0.00 0.00
05/30/24 7:10:30 AM 360 0.0 1.0 63 89 66.6 58.0 29.967 13.07 0.0 167 0.00 0.00 0.00 0.00
05/30/24 7:11:23 AM 360 0.0 1.0 63 89 66.6 58.0 29.967 13.07 0.0 167 0.00 0.00 0.00 0.00
05/30/24 7:12:31 AM 360 0.0 1.0 63 89 66.6 58.1 29.967 13.07 0.0 186 0.00 0.00 0.00 0.00
05/30/24 7:13:24 AM 360 0.0 1.0 63 89 66.6 58.3 29.967 13.07 0.0 190 0.00 0.00 0.00 0.00
05/30/24 7:14:17 AM 360 0.0 1.0 63 89 66.6 58.4 29.967 13.07 0.0 190 0.00 0.00 0.00 0.00
05/30/24 7:15:31 AM 360 0.0 1.0 63 89 66.6 58.6 29.967 13.07 0.0 197 0.00 0.00 0.00 0.00
05/30/24 7:16:18 AM 360 0.0 1.0 63 89 66.6 58.7 29.968 13.07 0.0 200 0.00 0.00 0.00 0.00
05/30/24 7:17:26 AM 360 0.0 1.0 63 88 66.6 58.8 29.971 13.07 0.0 204 0.00 0.00 0.00 0.00
05/30/24 7:18:18 AM 360 0.0 1.0 63 88 66.7 58.8 29.970 13.07 0.0 204 0.00 0.00 0.00 0.00
05/30/24 7:19:29 AM 360 0.0 1.0 63 88 66.7 59.0 29.971 13.07 0.0 214 0.00 0.00 0.00 0.00
05/30/24 7:20:22 AM 360 0.0 1.0 63 88 66.7 59.1 29.971 13.07 0.0 214 0.00 0.00 0.00 0.00
05/30/24 7:21:33 AM 360 0.0 1.0 63 88 66.7 59.3 29.970 13.07 0.0 214 0.00 0.00 0.00 0.00
05/30/24 7:22:23 AM 360 0.0 1.0 63 88 66.7 59.4 29.970 13.07 0.0 221 0.00 0.00 0.00 0.00
05/30/24 7:23:31 AM 360 0.0 1.0 63 88 66.7 59.5 29.970 13.07 0.0 221 0.00 0.00 0.00 0.00
05/30/24 7:24:24 AM 360 0.0 1.0 63 87 66.7 59.6 29.970 13.07 0.0 227 0.00 0.00 0.00 0.00
05/30/24 7:25:35 AM 360 0.0 1.0 63 87 66.7 59.7 29.971 13.07 0.0 227 0.00 0.00 0.00 0.00
05/30/24 7:26:28 AM 360 0.0 1.0 63 87 66.7 59.9 29.971 13.07 0.0 234 0.00 0.00 0.00 0.00
05/30/24 7:27:18 AM 360 0.0 1.0 63 87 66.8 59.9 29.972 13.07 0.5 236 0.00 0.00 0.00 0.00
05/30/24 7:28:23 AM 360 0.0 1.0 63 87 66.8 60.0 29.971 13.07 0.5 237 0.00 0.00 0.00 0.00
05/30/24 7:29:37 AM 360 0.0 1.0 63 87 66.8 60.1 29.971 13.07 0.5 241 0.00 0.00 0.00 0.00
05/30/24 7:30:30 AM 360 0.0 1.0 63 87 66.8 60.2 29.971 13.07 0.5 244 0.00 0.00 0.00 0.00
05/30/24 7:31:16 AM 360 0.0 1.0 63 87 66.8 60.3 29.971 13.07 0.5 246 0.00 0.00 0.00 0.00
05/30/24 7:32:31 AM 360 0.0 1.0 63 87 66.8 60.5 29.971 13.07 0.5 250 0.00 0.00 0.00 0.00
05/30/24 7:33:17 AM 360 0.0 1.0 63 86 66.8 60.6 29.971 13.07 0.5 251 0.00 0.00 0.00 0.00
05/30/24 7:34:31 AM 360 0.0 1.0 63 86 66.8 60.8 29.971 13.07 0.5 257 0.00 0.00 0.00 0.00
05/30/24 7:35:21 AM 360 0.0 1.0 63 86 66.8 60.9 29.971 13.07 0.5 257 0.00 0.00 0.00 0.00
05/30/24 7:36:32 AM 360 0.0 1.0 63 86 66.9 61.1 29.972 13.07 0.5 265 0.00 0.00 0.00 0.00
05/30/24 7:37:25 AM 360 0.0 1.0 63 85 66.9 61.1 29.972 13.07 0.5 269 0.00 0.00 0.00 0.00
05/30/24 7:38:18 AM 360 0.0 1.0 63 85 66.9 61.3 29.971 13.07 0.6 269 0.00 0.00 0.00 0.00
05/30/24 7:39:26 AM 360 0.0 1.0 63 85 67.0 61.5 29.970 13.07 0.6 269 0.00 0.00 0.00 0.00
05/30/24 7:40:16 AM 360 0.0 1.0 63 85 67.0 61.6 29.968 13.07 0.6 278 0.00 0.00 0.00 0.00
05/30/24 7:41:30 AM 360 0.0 1.0 63 84 67.0 61.8 29.971 13.07 0.6 278 0.00 0.00 0.00 0.00
05/30/24 7:42:20 AM 360 0.0 1.0 63 84 67.0 61.9 29.971 13.07 0.6 278 0.00 0.00 0.00 0.00
05/30/24 7:43:31 AM 360 0.0 1.0 63 83 67.1 62.1 29.970 13.07 0.6 278 0.00 0.00 0.00 0.00
05/30/24 7:44:21 AM 360 0.0 1.0 63 83 67.1 62.2 29.970 13.07 0.6 290 0.00 0.00 0.00 0.00
05/30/24 7:45:32 AM 360 0.0 1.0 63 83 67.1 62.3 29.969 13.07 0.6 294 0.00 0.00 0.00 0.00
05/30/24 7:46:22 AM 360 0.0 1.0 63 82 67.1 62.5 29.969 13.07 0.6 294 0.00 0.00 0.00 0.00
05/30/24 7:47:36 AM 360 0.0 1.0 63 82 67.1 62.7 29.970 13.07 0.7 302 0.00 0.00 0.00 0.00
05/30/24 7:48:26 AM 360 0.0 1.0 63 82 67.1 62.8 29.970 13.07 0.7 302 0.00 0.00 0.00 0.00
05/30/24 7:49:34 AM 360 0.0 1.0 63 82 67.1 62.9 29.971 13.07 0.7 306 0.00 0.00 0.00 0.00
05/30/24 7:50:24 AM 360 0.0 1.0 63 82 67.1 63.1 29.971 13.07 0.7 306 0.00 0.00 0.00 0.00
05/30/24 7:51:16 AM 360 0.0 1.0 63 81 67.1 63.2 29.974 13.07 0.7 306 0.00 0.00 0.00 0.00
05/30/24 7:52:28 AM 360 0.0 1.0 63 81 67.1 63.4 29.968 13.07 0.7 316 0.00 0.00 0.00 0.00
05/30/24 7:53:20 AM 360 0.0 1.0 63 80 67.1 63.4 29.968 13.07 0.7 320 0.00 0.00 0.00 0.00
05/30/24 7:54:26 AM 360 0.0 1.0 63 80 67.2 63.6 29.969 13.07 0.8 322 0.00 0.00 0.00 0.00
05/30/24 7:55:19 AM 360 0.0 1.0 63 79 67.2 63.9 29.971 13.07 0.8 322 0.00 0.00 0.00 0.00
05/30/24 7:56:33 AM 360 0.0 1.0 63 79 67.2 64.1 29.971 13.07 0.8 322 0.00 0.00 0.00 0.00
05/30/24 7:57:25 AM 360 0.0 1.0 63 78 67.2 64.3 29.971 13.07 0.8 322 0.00 0.00 0.00 0.00
05/30/24 7:58:18 AM 360 0.0 1.0 63 77 67.2 64.4 29.968 13.07 0.8 322 0.00 0.00 0.00 0.00
05/30/24 7:59:29 AM 360 0.0 1.0 63 77 67.3 64.6 29.971 13.07 0.8 322 0.00 0.00 0.00 0.00
05/30/24 8:00:38 AM 360 0.0 1.0 63 76 67.3 64.7 29.971 13.07 0.8 322 0.00 0.00 0.00 0.00
05/30/24 8:01:27 AM 360 0.0 1.0 63 76 67.3 64.8 29.971 13.07 0.8 345 0.00 0.00 0.00 0.00
05/30/24 8:02:18 AM 360 0.0 1.0 63 76 67.3 64.8 29.970 13.07 0.9 345 0.00 0.00 0.00 0.00
05/30/24 8:03:29 AM 360 0.0 1.0 63 76 67.3 65.0 29.970 13.07 0.9 350 0.00 0.00 0.00 0.00
05/30/24 8:04:22 AM 360 0.0 1.0 63 75 67.3 65.0 29.970 13.07 0.9 353 0.00 0.00 0.00 0.00
05/30/24 8:05:30 AM 360 0.0 1.0 63 75 67.4 65.0 29.971 13.07 0.9 357 0.00 0.00 0.00 0.00
05/30/24 8:06:23 AM 360 0.0 1.0 63 75 67.4 65.2 29.971 13.07 0.9 357 0.00 0.00 0.00 0.00
05/30/24 8:07:37 AM 360 0.0 1.0 63 74 67.4 65.2 29.973 13.07 0.9 357 0.00 0.00 0.00 0.00
05/30/24 8:08:27 AM 360 0.0 1.0 63 74 67.4 65.2 29.973 13.07 0.9 357 0.00 0.00 0.00 0.00
05/30/24 8:09:20 AM 360 0.0 1.0 63 74 67.4 65.3 29.974 13.07 0.9 357 0.00 0.00 0.00 0.00
05/30/24 8:10:22 AM 360 0.0 1.0 63 74 67.4 65.4 29.974 13.07 1.0 357 0.00 0.00 0.00 0.00
05/30/24 8:11:27 AM 360 0.0 1.0 63 73 67.5 65.6 29.971 13.07 1.0 357 0.00 0.00 0.00 0.00
05/30/24 8:12:20 AM 360 0.0 1.0 63 73 67.5 65.7 29.972 13.07 1.0 381 0.00 0.00 0.00 0.00
05/30/24 8:13:34 AM 360 0.0 1.0 63 73 67.6 66.1 29.972 13.07 1.0 381 0.00 0.00 0.00 0.00
05/30/24 8:14:24 AM 360 0.0 1.0 63 73 67.6 66.3 29.972 13.07 1.1 388 0.00 0.00 0.00 0.00
05/30/24 8:15:17 AM 360 0.0 1.0 63 73 67.5 66.4 29.973 13.07 1.1 390 0.00 0.00 0.00 0.00
05/30/24 8:16:25 AM 360 0.0 1.0 63 72 67.6 66.6 29.971 13.07 1.1 394 0.00 0.00 0.00 0.00
05/30/24 8:17:17 AM 360 0.0 1.0 63 71 67.6 66.8 29.972 13.07 1.1 397 0.00 0.00 0.00 0.00
05/30/24 8:18:29 AM 360 0.0 1.0 63 71 67.6 66.8 29.971 13.07 1.1 401 0.00 0.00 0.00 0.00
05/30/24 8:19:22 AM 360 0.0 1.0 63 71 67.6 66.9 29.971 13.07 1.1 401 0.00 0.00 0.00 0.00
05/30/24 8:20:33 AM 360 0.0 2.0 63 70 67.6 67.0 29.973 13.07 1.2 411 0.00 0.00 0.00 0.00
05/30/24 8:21:20 AM 360 0.0 2.0 63 69 67.6 67.1 29.973 13.07 1.2 415 0.00 0.00 0.00 0.00
05/30/24 8:22:31 AM 360 0.0 2.0 63 69 67.7 67.2 29.974 13.07 1.2 415 0.00 0.00 0.00 0.00
05/30/24 8:23:24 AM 360 0.0 2.0 63 69 67.7 67.3 29.974 13.07 1.2 420 0.00 0.00 0.00 0.00
05/30/24 8:24:35 AM 360 0.0 2.0 63 69 67.8 67.5 29.972 13.07 1.2 424 0.00 0.00 0.00 0.00
05/30/24 8:25:28 AM 360 0.0 2.0 63 68 67.8 67.7 29.972 13.07 1.2 427 0.00 0.00 0.00 0.00
05/30/24 8:26:18 AM 360 0.0 2.0 63 68 67.8 67.7 29.972 13.07 1.3 427 0.00 0.00 0.00 0.00
05/30/24 8:27:26 AM 360 0.0 3.0 63 68 67.8 67.9 29.972 13.07 1.3 427 0.00 0.00 0.00 0.00
05/30/24 8:28:16 AM 360 1.0 3.0 63 68 67.8 68.0 29.972 13.07 1.3 434 0.00 0.00 0.00 0.00
05/30/24 8:29:30 AM 360 0.0 3.0 63 67 67.8 68.0 29.973 13.07 1.3 434 0.00 0.00 0.00 0.00
05/30/24 8:30:23 AM 360 0.0 3.0 63 67 67.8 68.0 29.973 13.07 1.3 434 0.00 0.00 0.00 0.00
05/30/24 8:31:34 AM 360 0.0 3.0 63 67 67.9 68.0 29.971 13.07 1.3 434 0.00 0.00 0.00 0.00
05/30/24 8:32:21 AM 360 0.0 3.0 63 67 67.9 68.1 29.971 13.07 1.3 450 0.00 0.00 0.00 0.00
05/30/24 8:33:32 AM 360 0.0 3.0 63 67 67.9 68.3 29.970 13.07 1.4 454 0.00 0.00 0.00 0.00
05/30/24 8:34:22 AM 360 0.0 3.0 63 67 67.9 68.4 29.970 13.07 1.4 454 0.00 0.00 0.00 0.00
05/30/24 8:35:36 AM 360 0.0 3.0 63 67 68.0 68.5 29.969 13.07 1.4 461 0.00 0.00 0.00 0.00
05/30/24 8:36:26 AM 360 0.0 3.0 63 67 68.0 68.6 29.969 13.07 1.4 464 0.00 0.00 0.00 0.00
05/30/24 8:37:37 AM 360 0.0 3.0 63 67 68.0 68.7 29.972 13.07 1.4 468 0.00 0.00 0.00 0.00
05/30/24 8:38:27 AM 360 0.0 3.0 63 65 68.0 68.7 29.972 13.07 1.4 468 0.00 0.00 0.00 0.00
05/30/24 8:39:20 AM 360 0.0 3.0 63 65 68.1 68.7 29.970 13.07 1.4 475 0.00 0.00 0.00 0.00
05/30/24 8:40:31 AM 360 0.0 3.0 63 65 68.1 68.8 29.968 13.07 1.4 478 0.00 0.00 0.00 0.00
05/30/24 8:41:21 AM 360 0.0 3.0 63 65 68.1 68.8 29.968 13.07 1.5 480 0.00 0.00 0.00 0.00
05/30/24 8:42:29 AM 360 0.0 3.0 63 65 68.1 68.9 29.971 13.07 1.5 482 0.00 0.00 0.00 0.00
05/30/24 8:43:19 AM 360 0.0 3.0 63 65 68.1 68.9 29.971 13.07 1.5 482 0.00 0.00 0.00 0.00
05/30/24 8:44:33 AM 360 1.0 3.0 63 64 68.1 68.9 29.969 13.07 1.5 482 0.00 0.00 0.00 0.00
05/30/24 8:45:26 AM 360 0.0 3.0 63 64 68.1 69.0 29.969 13.07 1.6 482 0.00 0.00 0.00 0.00
05/30/24 8:46:34 AM 360 0.0 3.0 63 64 68.1 68.9 29.971 13.07 1.6 482 0.00 0.00 0.00 0.00
05/30/24 8:47:27 AM 360 0.0 3.0 63 64 68.2 69.0 29.971 13.07 1.6 482 0.00 0.00 0.00 0.00
05/30/24 8:48:35 AM 360 0.0 3.0 63 64 68.2 69.1 29.971 13.07 1.6 496 0.00 0.00 0.00 0.00
05/30/24 8:49:28 AM 360 0.0 3.0 63 63 68.2 69.2 29.971 13.07 1.6 496 0.00 0.00 0.00 0.00
05/30/24 8:50:18 AM 360 0.0 3.0 63 63 68.2 69.2 29.970 13.07 1.6 496 0.00 0.00 0.00 0.00
05/30/24 8:51:32 AM 360 0.0 3.0 63 63 68.3 69.4 29.969 13.07 1.7 503 0.00 0.00 0.00 0.00
05/30/24 8:52:22 AM 360 0.0 3.0 63 63 68.3 69.5 29.969 13.07 1.7 503 0.00 0.00 0.00 0.00
05/30/24 8:53:27 AM 360 0.0 3.0 63 63 68.3 69.6 29.970 13.07 1.7 503 0.00 0.00 0.00 0.00
05/30/24 8:54:20 AM 360 0.0 3.0 63 63 68.3 69.7 29.971 13.07 1.7 503 0.00 0.00 0.00 0.00
05/30/24 8:55:31 AM 360 0.0 3.0 63 63 68.4 69.8 29.969 13.07 1.7 503 0.00 0.00 0.00 0.00
05/30/24 8:56:21 AM 360 0.0 3.0 63 62 68.4 69.9 29.969 13.07 1.7 503 0.00 0.00 0.00 0.00
05/30/24 8:57:32 AM 360 0.0 3.0 63 62 68.4 70.0 29.966 13.07 1.8 503 0.00 0.00 0.00 0.00
05/30/24 8:58:19 AM 360 0.0 3.0 63 62 68.4 70.0 29.966 13.07 1.8 510 0.00 0.00 0.00 0.00
05/30/24 8:59:30 AM 360 0.0 3.0 63 62 68.4 70.2 29.968 13.07 1.8 510 0.00 0.00 0.00 0.00
05/30/24 9:00:23 AM 360 0.0 3.0 63 62 68.4 70.3 29.968 13.07 1.8 512 0.00 0.00 0.00 0.00
05/30/24 9:01:34 AM 360 0.0 3.0 63 62 68.4 70.3 29.965 13.07 1.9 512 0.00 0.00 0.00 0.00
05/30/24 9:02:27 AM 360 0.0 3.0 63 62 68.4 70.3 29.965 13.07 1.9 510 0.00 0.00 0.00 0.00
05/30/24 9:03:17 AM 360 0.0 3.0 63 62 68.4 70.4 29.968 13.07 1.9 512 0.00 0.00 0.00 0.00
05/30/24 9:04:25 AM 360 0.0 3.0 63 62 68.4 70.7 29.970 13.07 2.0 510 0.00 0.00 0.00 0.00
05/30/24 9:05:37 AM 360 0.0 3.0 63 61 68.4 70.9 29.968 13.07 2.0 510 0.00 0.00 0.00 0.00
05/30/24 9:06:26 AM 360 0.0 3.0 63 61 68.4 71.1 29.968 13.07 2.0 510 0.00 0.00 0.00 0.00
05/30/24 9:07:19 AM 360 0.0 3.0 63 61 68.5 71.2 29.969 13.07 2.0 510 0.00 0.00 0.00 0.00
05/30/24 9:08:33 AM 360 0.0 3.0 63 60 68.5 71.3 29.969 13.07 2.0 506 0.00 0.00 0.00 0.00
05/30/24 9:09:20 AM 360 0.0 3.0 63 60 68.5 71.4 29.969 13.07 2.1 504 0.00 0.00 0.00 0.00
05/30/24 9:10:32 AM 360 0.0 3.0 63 60 68.6 71.6 29.969 13.07 2.1 504 0.00 0.00 0.00 0.00
05/30/24 9:11:25 AM 360 0.0 3.0 63 59 68.6 71.6 29.969 13.07 2.1 504 0.00 0.00 0.00 0.00
05/30/24 9:12:36 AM 360 0.0 3.0 63 59 68.6 71.6 29.970 13.07 2.1 504 0.00 0.00 0.00 0.00
05/30/24 9:13:29 AM 360 0.0 3.0 63 59 68.6 71.7 29.970 13.07 2.2 503 0.00 0.00 0.00 0.00
05/30/24 9:14:34 AM 360 0.0 3.0 63 59 68.6 71.7 29.969 13.07 2.2 503 0.00 0.00 0.00 0.00
05/30/24 9:15:30 AM 360 2.0 3.0 63 59 68.6 71.9 29.969 13.07 2.2 503 0.00 0.00 0.00 0.00
05/30/24 9:16:19 AM 360 1.0 3.0 63 59 68.7 72.0 29.969 13.07 2.2 503 0.00 0.00 0.00 0.00
05/30/24 9:17:34 AM 360 0.0 3.0 63 59 68.7 72.1 29.969 13.07 2.2 503 0.00 0.00 0.00 0.00
05/30/24 9:18:24 AM 360 0.0 3.0 63 59 68.7 72.2 29.969 13.07 2.2 503 0.00 0.00 0.00 0.00
05/30/24 9:19:32 AM 360 0.0 3.0 63 59 68.8 72.3 29.969 13.07 2.2 494 0.00 0.00 0.00 0.00
05/30/24 9:20:22 AM 360 0.0 3.0 63 58 68.8 72.3 29.969 13.07 2.2 494 0.00 0.00 0.00 0.00
05/30/24 9:21:33 AM 360 0.0 3.0 63 58 68.8 72.4 29.969 13.07 2.3 494 0.00 0.00 0.00 0.00
05/30/24 9:22:23 AM 360 0.0 3.0 63 58 68.8 72.3 29.969 13.07 2.3 494 0.00 0.00 0.00 0.00
05/30/24 9:23:37 AM 360 0.0 3.0 63 58 68.8 72.4 29.970 13.07 2.3 494 0.00 0.00 0.00 0.00
05/30/24 9:24:30 AM 360 0.0 3.0 63 58 68.8 72.4 29.969 13.07 2.3 494 0.00 0.00 0.00 0.00
05/30/24 9:25:17 AM 360 0.0 3.0 63 58 68.8 72.4 29.969 13.07 2.4 496 0.00 0.00 0.00 0.00
05/30/24 9:26:28 AM 360 0.0 3.0 63 58 68.8 72.4 29.968 13.07 2.4 496 0.00 0.00 0.00 0.00
05/30/24 9:27:18 AM 360 0.0 3.0 63 58 68.9 72.4 29.968 13.07 2.4 497 0.00 0.00 0.00 0.00
05/30/24 9:28:32 AM 360 0.0 3.0 63 58 68.9 72.3 29.971 13.07 2.4 497 0.00 0.00 0.00 0.00
05/30/24 9:29:22 AM 360 0.0 3.0 63 58 68.9 72.3 29.971 13.07 2.4 497 0.00 0.00 0.00 0.00
05/30/24 9:30:33 AM 360 0.0 3.0 63 58 69.0 72.1 29.970 13.07 2.4 499 0.00 0.00 0.00 0.00
05/30/24 9:31:23 AM 360 0.0 3.0 63 58 69.0 72.1 29.970 13.07 2.4 499 0.00 0.00 0.00 0.00

University Police wind advisory reference

For campus closure information please call the campus Emergency Hotline at (909) 537-5999

© All rights reserved. Unauthorized duplication or distribution is prohibited

Never base important decisions on this or any weather information obtained from the Internet

California State University, San Bernardino
5500 University Parkway, San Bernardino, CA. 92407
Phone: (909) 537-5108, Email: Weather Webmaster
Last Updated: